sat.trackr.live / text

‹ back to catalog

STARLINK-31138

NORAD 58806 · 2024-012V

PAYLOAD ACTIVE UNKNOWN

§ Identity

Operator
Country
US
Launch date
2024-01-15
Launch site
AFETR
Launch vehicle
Mass (kg)
RCS (m²)

Purposes: comms

External: N2YO · Heavens-Above · Gunter

§ Orbital elements

Epoch: 2026-09-20T00:19:41.751552Z

Period
94.27 min
Inclination
43.0004°
Eccentricity
0.0001382
Mean motion
15.27577347 rev/d
Perigee alt
482.1 km
Apogee alt
484.0 km
Semi-major
6,861.2 km
B*
2.0475e-5
RAAN
147.9481°
Arg perigee
271.2054°
Mean anomaly
88.8639°
Rev number
15,095

§ Raw data

STARLINK-311381 58806U 24012V   26263.01367768  .00000301  00000+0  20475-4 0  99982 58806  43.0004 147.9481 0001382 271.2054  88.8639 15.27577347150959

JSON: /api/v1/satellites/58806 · /tle

For live sub-satellite position, see the globe view (requires WebGL).

§ Visibility from observer

Set your observer location to see the next 7 days of passes ≥ 10°. The values pass through the URL so the page stays shareable.

No JS? Fill the form by hand. The geolocation button needs JavaScript.